Theta_e
316 322 325 322 319 320 320 319 319 319 319 320 321 323 325 326 326 324 324 323 322 324 323 322 322 323 323 324 325 325 324 325 326 326 326 326 327 329 330 331 332 332 333 333 334 334 334 332 329 327 327 327 328 329 329 329 328 328 329 330 329 329 328 327 327 327 325 323 322 322 322 321 321 322 322 321 320 319 317 316 314 311 309 309 309 311
318 321 321 319 317 317 318 317 319 319 319 321 323 325 325 326 326 324 323 323 322 324 324 322 322 321 321 322 324 325 325 326 326 326 326 325 325 328 327 326 327 327 328 329 330 331 332 330 327 325 324 325 328 330 330 329 329 329 329 329 330 330 330 329 329 328 326 323 322 322 323 323 322 322 322 321 320 318 315 313 310 308 308 309 308 308
319 319 318 316 315 314 314 315 318 319 319 322 323 326 328 325 325 325 324 324 323 324 324 322 322 322 320 320 322 324 325 325 325 324 324 324 323 324 324 325 325 324 326 326 325 326 328 327 325 323 323 326 330 331 330 329 329 329 328 328 329 329 330 330 330 329 328 327 324 324 324 324 324 324 322 321 321 318 315 313 310 308 309 311 310 307
317 317 314 311 312 314 315 314 316 318 318 320 323 327 327 322 324 329 325 323 323 324 324 322 322 322 321 320 320 322 323 324 324 323 323 324 325 325 326 326 325 323 323 325 325 325 325 325 325 324 324 327 331 332 331 329 329 329 329 329 329 329 329 329 329 329 329 328 327 327 326 325 324 323 321 321 320 319 316 313 311 310 309 311 311 309
316 314 312 311 313 317 318 317 318 320 317 318 322 326 324 320 323 328 325 323 324 323 322 324 325 323 321 322 321 320 321 322 323 324 324 326 326 327 327 327 327 325 326 327 327 327 326 325 326 326 327 328 330 332 331 330 329 329 330 330 330 329 329 329 330 329 328 328 328 328 327 326 325 323 321 320 319 319 318 316 315 313 310 310 312 311
315 312 312 316 320 320 321 320 317 318 320 320 321 322 322 323 325 325 323 327 330 326 321 325 330 327 322 322 321 320 320 320 322 323 324 326 327 327 327 327 327 325 326 327 327 327 327 326 326 327 328 328 329 330 330 329 328 329 330 330 329 329 329 329 329 329 328 328 328 328 328 328 327 326 324 322 322 321 321 322 321 318 312 309 311 312
315 312 314 320 323 323 324 322 316 318 326 323 317 319 322 324 325 324 324 327 330 326 321 322 329 328 324 324 323 321 321 320 320 321 322 326 327 326 326 326 325 324 324 324 324 324 324 325 324 325 326 326 327 328 328 327 327 328 330 331 330 330 330 329 329 328 327 327 329 328 328 328 328 328 327 326 326 326 325 325 325 324 318 312 310 312
315 316 318 321 323 324 323 322 317 319 326 321 316 320 323 324 326 324 325 327 325 324 323 319 324 328 325 324 323 322 321 321 320 320 320 323 326 326 325 325 324 323 323 323 323 322 322 322 322 322 323 323 324 324 325 325 325 326 328 331 332 331 331 330 329 329 328 327 327 328 328 328 328 328 327 327 327 328 328 327 327 327 324 316 311 311
314 317 318 321 323 321 318 317 315 316 321 318 316 320 321 321 324 320 321 325 323 326 328 322 322 328 327 324 323 322 323 322 322 321 320 321 325 325 324 324 323 323 323 323 322 322 322 322 322 322 322 322 321 322 325 325 325 326 327 329 330 330 331 330 330 330 330 328 327 328 329 328 328 327 327 327 327 327 327 327 327 327 326 320 313 311
314 315 315 319 322 318 316 315 314 318 320 315 314 319 320 320 322 322 322 327 330 329 326 322 322 326 327 326 324 323 324 324 323 321 320 321 323 323 323 323 322 322 322 322 322 322 322 322 322 321 322 322 321 322 324 325 325 326 326 327 326 326 327 328 328 329 329 329 329 329 329 328 328 328 328 328 328 327 327 327 327 326 324 319 315 312
314 315 314 316 317 315 315 314 312 316 316 314 317 318 319 322 326 328 327 330 335 329 321 320 322 325 327 326 324 324 324 323 324 322 320 321 322 322 322 321 321 321 321 321 322 322 322 321 321 321 321 321 321 321 322 323 323 324 325 324 323 322 323 324 324 325 324 325 327 329 328 328 329 329 329 329 328 328 328 327 326 325 322 317 316 317
315 317 315 313 313 313 317 316 313 313 312 317 325 321 320 325 325 328 331 332 332 326 321 322 322 324 327 324 323 324 323 322 323 322 320 320 321 321 321 321 321 320 320 320 321 321 320 320 320 320 320 320 320 320 320 321 321 322 322 321 321 320 321 322 322 323 323 323 326 328 328 328 328 328 328 328 328 328 328 328 327 325 321 318 320 323
316 316 314 313 314 313 318 324 321 318 317 321 329 328 326 327 325 327 329 328 327 324 322 322 322 324 326 324 324 325 323 320 321 320 320 320 320 321 320 320 320 319 319 320 320 320 319 319 319 319 319 319 319 319 319 319 319 319 319 319 320 320 320 322 323 323 323 323 324 326 326 327 327 326 326 327 327 326 326 326 326 325 323 322 324 326
322 320 316 316 317 314 316 324 323 320 322 323 327 333 332 330 330 328 323 321 324 324 321 319 322 325 324 323 324 325 322 319 320 319 320 320 320 320 320 319 319 318 319 319 319 319 318 318 319 318 318 318 318 319 318 318 318 318 318 318 319 320 321 322 323 323 323 323 323 323 323 324 324 324 324 325 325 325 325 325 325 325 324 324 325 326
325 322 319 317 316 315 315 317 317 319 322 319 321 329 330 328 332 329 326 326 324 322 322 321 324 325 324 323 322 322 319 319 320 319 319 320 320 320 319 319 318 318 318 319 318 318 317 317 318 318 318 317 317 318 318 318 318 318 318 318 318 319 320 321 323 323 323 322 323 323 323 323 323 323 323 323 323 323 324 324 324 324 324 325 325 325
322 318 317 315 313 314 316 314 315 320 321 316 318 327 325 322 327 324 321 323 323 323 323 323 324 324 323 323 320 318 318 317 318 319 319 319 319 319 319 318 318 318 318 318 317 317 316 316 317 317 317 317 317 317 317 317 317 317 318 318 317 318 318 319 320 320 320 319 320 322 322 323 323 323 323 322 321 321 321 321 321 321 322 323 323 324
322 319 318 319 315 314 314 313 313 315 317 318 322 325 319 316 323 324 318 316 321 326 323 320 322 323 322 322 320 319 319 318 317 318 318 319 318 318 318 317 317 317 318 318 317 316 316 316 316 316 316 316 316 316 317 317 317 317 317 317 317 317 317 317 317 318 317 317 317 318 318 319 320 320 320 320 320 320 320 320 319 319 319 320 321 322
322 322 319 319 318 315 313 312 313 312 315 323 324 319 317 316 320 327 324 319 321 325 323 321 324 325 324 323 321 321 320 319 319 317 317 318 318 317 317 317 316 316 317 317 317 316 316 315 315 315 314 315 316 316 316 317 317 317 317 317 317 317 317 317 317 317 317 317 317 317 317 317 317 317 318 318 319 319 320 320 321 321 320 320 320 321
321 324 321 319 319 316 314 314 316 314 313 319 319 315 318 320 321 326 325 324 325 323 321 323 324 325 325 323 322 322 322 322 320 319 317 317 317 317 317 317 316 316 316 316 317 317 316 315 315 313 312 314 316 316 316 316 316 316 316 316 316 316 316 316 315 315 316 316 316 316 316 316 316 317 317 317 318 318 319 320 320 321 321 322 322 322
319 324 323 321 318 315 319 319 318 320 317 316 318 319 322 322 322 324 321 322 327 324 320 323 323 324 327 326 323 323 324 325 324 322 320 317 317 317 316 317 317 316 316 316 317 317 316 315 314 312 311 314 316 315 316 315 314 315 316 316 316 315 315 315 314 314 315 315 315 315 316 316 316 316 316 316 317 317 318 319 319 320 320 322 323 323
320 325 323 323 321 318 320 318 314 318 318 318 323 324 323 321 318 320 320 319 323 322 320 323 324 325 327 325 323 324 325 323 322 321 319 317 317 318 316 316 317 316 316 316 316 317 316 314 313 311 310 312 313 313 314 313 312 314 315 315 315 315 315 314 314 314 314 314 314 314 315 315 315 315 315 315 316 316 317 318 319 319 319 320 321 322
319 327 326 323 323 320 317 315 314 316 316 320 323 319 319 320 320 324 322 317 320 321 320 323 326 329 327 322 322 324 321 318 317 317 317 317 317 316 316 316 315 316 317 317 316 316 315 313 313 311 309 309 310 311 312 311 311 313 314 314 314 314 315 315 314 314 313 313 314 314 315 315 315 315 315 315 315 315 315 316 318 319 319 318 319 320
317 326 326 320 320 319 315 313 311 311 315 321 321 317 319 320 322 331 329 320 320 319 317 321 325 329 326 318 318 319 316 316 317 316 317 317 316 315 315 315 315 316 317 317 316 315 314 313 312 311 309 309 309 310 311 311 311 311 312 312 312 313 313 314 314 314 313 312 313 314 314 314 314 315 315 315 315 315 314 315 315 317 318 318 318 319
319 325 324 321 324 325 322 319 314 312 318 322 319 318 320 318 320 328 328 324 322 318 320 324 325 329 326 315 314 316 315 317 317 316 316 316 315 315 315 315 315 315 316 316 315 314 313 312 312 310 309 309 309 310 311 311 310 310 310 310 311 311 310 311 313 313 312 312 312 312 312 313 313 314 314 314 314 315 314 314 314 315 316 318 318 318
318 322 324 324 325 324 324 326 323 321 322 321 317 317 318 318 319 320 320 324 325 318 320 325 325 329 325 315 315 316 314 316 316 315 316 315 315 315 314 315 315 314 315 315 314 313 313 312 311 310 310 310 310 309 310 311 310 309 309 309 310 309 308 309 312 312 312 311 311 311 311 311 311 311 312 313 313 314 315 315 314 314 314 316 317 318
320 322 325 328 325 320 322 324 321 319 319 318 317 317 317 318 319 318 319 326 324 315 317 324 325 326 323 318 318 316 315 317 316 315 316 315 315 315 314 315 315 314 315 314 313 313 312 312 311 310 310 310 310 310 310 310 309 308 308 308 309 308 307 308 309 310 310 310 310 310 310 310 310 310 311 311 312 313 313 314 315 315 315 315 315 317
324 321 323 331 331 326 327 324 318 317 318 318 317 316 317 319 319 320 320 322 320 315 320 326 323 320 320 320 320 319 319 319 316 315 316 315 315 314 315 315 314 314 314 313 313 313 312 311 310 310 310 310 310 310 310 310 309 308 308 308 308 308 308 308 308 308 308 308 308 308 308 309 309 310 311 311 311 311 312 313 313 314 314 314 315 316
330 323 318 324 326 324 326 324 317 316 316 318 318 315 318 322 323 321 318 316 315 315 320 326 323 320 322 323 322 321 322 319 314 315 316 315 315 314 314 315 314 314 313 313 313 312 312 311 310 311 311 309 310 311 310 310 309 309 309 308 308 308 308 308 308 308 308 307 308 307 307 307 307 309 311 311 311 310 311 311 312 313 314 314 314 315
330 323 314 316 317 317 320 320 317 317 317 319 321 318 318 320 320 318 317 316 317 318 320 321 320 322 326 327 323 319 318 317 315 315 316 315 315 314 314 314 313 313 313 312 312 312 312 311 311 311 310 309 310 310 310 310 309 308 309 308 308 308 308 308 308 308 308 308 308 307 307 307 306 308 311 311 310 310 310 310 311 312 313 314 314 315
321 321 315 316 319 318 318 319 320 320 318 318 321 322 321 321 319 317 319 319 318 317 319 319 319 324 326 324 321 316 314 316 315 315 316 315 314 314 314 313 313 313 313 312 312 312 311 311 311 311 310 309 310 310 310 309 309 309 308 308 308 308 308 308 308 308 308 308 308 307 307 307 306 307 309 310 310 309 308 309 310 311 311 313 314 315
315 315 315 322 326 319 318 322 324 323 319 317 321 325 323 320 318 316 318 320 317 315 318 317 318 324 322 315 312 312 312 313 313 313 315 315 314 314 313 313 313 312 312 312 311 312 311 311 311 311 310 309 309 309 309 309 308 308 308 308 308 308 307 307 307 307 307 307 307 307 306 306 306 306 307 309 309 309 307 307 308 310 310 311 313 314
320 315 316 328 331 319 317 322 324 324 321 318 321 327 324 319 318 316 316 318 318 317 318 316 317 325 321 310 309 312 311 311 312 313 314 314 314 314 313 313 313 312 312 311 311 311 311 311 311 311 310 309 309 309 309 308 308 308 308 308 308 306 305 306 307 307 306 306 306 307 306 306 305 305 306 309 309 309 308 306 306 308 310 310 311 312
326 323 318 323 325 319 317 319 322 324 324 323 325 326 323 320 317 314 313 316 317 319 321 318 319 322 315 309 313 315 311 311 313 313 314 314 314 313 313 313 312 312 311 311 310 311 311 311 311 311 310 309 309 309 309 309 309 309 308 308 306 305 305 306 307 306 306 306 306 306 306 305 305 305 306 308 309 308 308 306 305 305 307 309 310 310
325 329 321 318 320 318 319 319 320 322 324 325 325 322 319 319 318 313 314 319 318 318 319 318 317 315 310 310 316 316 311 312 313 313 314 314 313 313 312 312 312 312 311 311 311 311 311 311 311 311 310 310 310 309 309 309 309 309 308 307 305 305 306 306 306 306 306 306 306 306 306 305 305 306 306 307 307 307 307 306 305 304 305 308 311 310
326 328 320 318 318 317 322 323 319 319 324 325 323 318 314 316 318 316 316 319 319 318 318 318 319 316 312 311 313 313 312 313 313 313 314 313 313 312 312 311 311 311 311 311 311 312 312 311 311 310 310 310 309 309 309 309 309 308 307 306 305 306 306 306 305 305 306 305 305 305 305 305 305 306 306 306 306 306 306 305 305 304 304 307 311 310
328 327 319 317 315 314 318 319 314 316 320 320 320 316 312 313 314 314 316 320 320 318 318 321 320 313 310 310 311 312 312 312 312 313 313 313 313 312 312 312 312 311 311 312 312 312 312 311 311 310 310 309 309 309 309 308 307 306 305 305 305 305 305 304 304 305 305 305 305 305 305 305 305 305 305 305 305 305 305 304 304 304 304 307 310 311
323 327 318 313 314 314 316 318 319 319 316 318 320 317 314 316 315 314 318 321 318 312 313 319 319 310 308 312 312 311 312 312 312 313 312 313 313 312 312 312 312 312 312 312 312 312 311 311 311 310 310 309 309 309 308 306 305 304 304 304 304 304 303 303 304 304 305 305 305 305 305 305 305 305 305 305 304 304 304 305 305 305 305 307 310 311
312 318 318 316 315 316 317 318 322 322 319 324 326 317 313 315 312 311 316 320 316 310 310 315 315 310 310 311 311 312 313 314 316 316 313 312 313 312 312 312 312 312 312 312 312 311 311 311 310 310 309 309 309 308 306 305 304 304 303 304 303 303 303 304 304 304 304 304 305 305 305 305 305 305 305 305 304 305 305 305 306 306 306 307 310 311
314 317 324 323 317 316 318 318 319 319 321 327 326 316 311 311 310 311 318 323 318 311 310 312 311 310 312 312 311 312 313 317 322 319 312 312 313 312 312 312 312 313 312 312 312 311 311 310 310 309 309 309 308 307 305 305 304 304 303 303 303 303 303 304 304 304 305 305 305 305 305 304 304 304 305 305 305 305 306 306 306 306 306 307 309 311
322 322 323 322 319 318 319 321 321 320 319 320 320 315 310 309 312 315 320 325 321 312 311 313 311 311 312 311 311 313 314 318 321 316 310 312 313 312 312 312 312 312 312 312 311 311 311 310 309 309 309 308 307 306 305 304 304 303 304 304 304 304 304 304 304 305 305 305 305 304 304 304 304 304 305 305 306 306 306 306 306 305 305 306 308 310
321 320 317 320 323 320 317 318 320 321 319 316 314 313 310 309 315 319 321 322 318 312 312 313 312 312 312 311 312 313 313 314 314 312 311 312 312 312 312 312 312 312 311 311 311 310 310 310 309 309 309 307 306 305 304 304 303 304 304 304 304 304 304 304 304 305 305 304 304 303 303 303 304 305 305 306 306 306 306 306 306 305 305 305 307 309
322 321 317 318 321 318 316 319 319 318 315 313 311 311 309 312 320 323 320 316 313 312 313 313 312 313 312 311 312 313 312 312 311 311 312 311 312 312 312 312 312 312 311 311 311 310 310 310 309 309 308 306 305 305 304 304 303 304 304 304 304 304 304 304 304 305 304 303 302 301 302 303 304 305 306 306 306 306 306 306 305 305 305 306 307 309
323 323 323 320 318 315 314 316 320 320 316 312 312 312 312 316 322 320 314 312 313 313 313 313 313 313 312 312 312 312 312 312 311 311 312 312 312 312 311 312 312 311 311 311 310 310 310 309 309 308 306 305 304 304 304 303 304 304 304 304 304 303 304 304 304 303 301 300 300 301 303 304 305 305 305 305 305 305 305 305 305 305 305 306 307 309
319 321 324 321 318 319 319 320 324 323 317 313 314 316 315 316 317 314 312 313 314 313 313 313 313 313 312 312 312 311 312 311 311 312 312 312 312 312 312 312 311 311 311 310 310 310 309 309 308 307 305 305 304 304 303 303 303 303 303 304 303 303 304 304 302 300 299 299 300 301 302 303 304 304 304 304 304 305 304 304 304 305 305 306 306 307
318 318 317 315 316 319 323 325 321 314 312 313 315 315 315 313 313 313 313 314 313 313 314 313 313 313 313 312 312 311 312 311 311 312 311 311 312 312 311 311 311 311 311 310 310 310 309 308 307 306 305 304 304 303 303 303 303 303 303 303 303 303 304 303 301 300 300 299 299 299 300 301 302 303 303 304 304 304 304 304 304 304 305 305 305 305
313 311 310 313 316 314 314 315 311 308 312 314 314 314 314 313 314 314 313 313 313 313 313 312 313 313 313 312 312 312 311 312 311 312 311 312 312 311 311 311 311 310 310 310 310 309 308 307 306 305 305 304 303 303 303 303 303 303 303 302 302 302 303 303 302 301 300 299 298 299 299 300 300 301 303 303 304 303 303 303 303 304 304 304 305 305
313 309 311 314 316 315 317 315 309 308 312 313 313 314 315 313 314 314 313 314 314 313 313 313 312 313 312 312 312 311 312 312 311 311 311 311 312 312 311 311 310 310 310 310 309 309 307 306 305 305 304 303 303 303 303 303 303 303 303 302 301 302 302 302 302 301 299 297 298 298 299 299 300 300 302 303 303 303 303 302 302 302 303 303 303 303
313 310 316 319 316 317 321 318 311 310 312 312 312 314 314 313 315 314 313 314 314 313 313 313 312 312 312 312 312 312 312 312 311 311 312 311 311 312 311 311 311 310 309 309 309 308 306 305 305 305 304 303 303 303 302 303 303 303 303 302 301 301 301 301 301 300 298 297 297 298 299 299 299 300 301 302 303 303 303 302 302 302 302 303 303 303
311 312 317 317 317 317 317 314 311 313 315 314 312 314 313 313 314 314 314 314 314 314 314 313 313 313 312 311 312 312 312 312 311 311 311 311 311 311 311 311 310 310 309 309 308 307 306 305 305 304 303 303 303 302 302 303 303 303 303 302 302 301 301 301 301 300 298 298 299 298 299 299 299 299 301 302 303 303 303 303 302 302 302 303 303 304
312 317 314 312 316 319 318 315 313 315 317 316 314 313 313 313 314 314 314 315 314 314 313 313 313 312 312 312 312 312 311 312 311 311 311 311 311 310 310 310 310 309 309 308 307 306 306 305 305 304 303 303 303 302 302 302 303 303 303 302 302 302 301 301 301 300 300 300 299 298 298 299 299 298 299 301 302 303 302 303 302 302 302 302 303 304
314 316 314 315 320 320 316 314 313 312 314 315 313 313 314 313 314 314 314 314 314 313 312 312 312 312 311 311 312 312 312 311 311 311 311 311 310 309 310 310 310 309 309 307 306 306 306 305 305 304 303 303 303 302 302 302 302 303 303 303 303 302 301 301 300 300 300 300 299 298 298 298 299 298 297 299 301 302 302 302 302 302 302 302 302 303
Wind_Speed
7 6 5 3 3 5 5 2 4 5 6 7 6 5 5 6 3 0 2 2 2 10 9 9 14 14 15 15 13 19 29 27 21 22 23 24 21 15 16 17 13 11 10 9 8 8 9 11 11 9 8 8 9 10 10 10 11 11 10 10 11 11 10 9 9 9 8 7 7 6 5 5 5 5 5 5 4 4 3 3 3 3 3 3 3 4
8 7 3 4 4 4 5 3 7 7 7 7 6 6 4 4 4 1 4 4 6 10 4 7 16 15 12 12 14 21 24 19 16 15 15 21 23 17 15 13 8 9 10 10 8 9 8 8 9 8 8 9 12 13 12 12 12 11 11 12 12 12 13 12 11 11 10 10 9 8 7 7 7 6 6 5 4 4 3 3 3 2 2 2 3 4
7 4 5 5 2 4 6 5 8 7 6 6 4 6 4 2 3 3 5 4 6 9 3 8 16 12 9 11 15 20 17 14 17 15 13 17 19 18 16 8 6 9 11 12 12 11 9 7 8 8 9 11 15 15 13 13 11 11 12 13 14 13 13 13 14 13 11 12 11 9 9 8 9 8 7 6 6 5 4 3 3 2 2 2 2 3
4 2 5 3 3 3 4 6 8 7 5 4 3 6 4 2 2 2 3 4 7 8 6 9 14 9 9 11 13 17 17 18 20 18 14 14 13 14 13 6 9 10 7 13 13 11 10 9 10 10 10 13 14 14 13 13 12 12 12 12 13 13 13 13 14 14 12 13 12 11 10 10 10 9 8 7 7 6 5 4 3 3 3 2 2 3
3 2 4 5 5 4 4 7 6 6 4 2 2 6 5 2 2 4 4 5 6 7 6 6 9 7 9 10 10 13 18 21 20 17 17 17 17 16 14 10 13 12 6 9 10 9 9 9 10 10 10 12 13 14 14 14 14 14 13 12 13 13 13 13 13 13 13 12 12 11 11 11 12 11 10 9 8 7 8 7 7 6 5 4 4 3
3 3 3 5 6 6 7 6 4 4 3 2 1 5 7 6 7 7 5 3 4 4 3 4 6 5 7 9 9 8 12 16 17 17 18 21 22 20 18 17 17 16 12 11 10 9 9 9 10 11 12 11 11 12 13 14 13 14 15 15 15 15 14 13 12 13 14 13 11 11 12 13 14 14 14 13 11 11 12 12 12 10 9 7 6 5
2 5 4 6 7 8 7 4 2 3 4 2 1 4 8 11 10 5 2 4 3 2 4 5 5 3 4 7 7 6 9 11 12 15 17 20 21 20 20 18 18 17 15 14 13 13 12 12 13 14 14 14 13 13 13 15 14 14 15 16 16 17 16 15 13 12 13 14 13 13 14 14 14 15 15 15 15 15 15 15 15 14 13 11 9 8
1 5 7 7 7 7 6 4 2 4 6 1 0 6 10 11 10 5 4 6 3 3 4 9 6 4 3 4 4 5 9 9 9 10 12 15 17 18 18 17 17 16 14 14 13 13 14 15 15 16 17 16 16 16 13 13 14 15 16 16 17 18 18 18 16 14 14 16 17 16 16 15 15 15 15 15 16 17 17 17 17 17 17 15 12 10
0 4 5 5 7 5 2 3 4 3 5 2 1 7 7 6 7 5 6 5 1 3 4 8 6 4 2 2 3 5 7 7 7 6 6 10 14 16 17 16 15 13 12 12 11 11 13 14 16 17 18 18 17 15 14 12 13 15 16 17 19 19 19 18 18 16 16 18 20 19 18 17 16 16 17 17 16 16 15 16 16 18 19 17 15 13
1 1 3 6 5 1 1 3 3 3 4 2 5 8 6 6 6 5 5 4 3 5 3 7 5 4 2 2 3 4 4 3 4 4 4 8 12 14 14 13 12 11 11 10 10 10 11 13 15 16 17 17 16 14 15 16 15 15 15 16 17 19 21 20 21 20 18 18 20 21 20 18 18 18 19 19 18 16 16 16 17 17 18 18 15 14
3 2 2 4 3 2 3 1 5 5 4 5 6 8 7 6 5 4 4 3 5 4 3 5 4 2 2 1 1 1 1 1 2 1 3 7 11 12 11 11 10 10 10 9 9 9 11 12 13 14 15 16 15 14 15 17 17 16 17 19 21 19 19 19 21 23 23 22 21 23 22 20 19 19 19 20 19 18 17 19 19 19 18 17 16 15
7 6 3 4 5 4 2 2 4 7 6 5 4 5 6 4 5 4 4 4 5 2 3 4 5 3 3 1 1 1 2 3 3 2 2 5 8 9 9 9 9 10 10 9 9 9 11 12 13 14 14 15 16 16 16 18 19 18 19 19 19 17 16 14 13 15 18 19 20 22 23 22 22 21 21 21 21 21 21 21 21 21 20 18 17 17
6 3 6 6 6 10 7 1 4 6 6 6 4 5 5 3 3 3 3 3 2 1 2 4 4 2 3 1 1 2 1 1 3 3 5 6 7 8 8 8 9 10 10 9 10 10 12 13 14 15 15 16 16 17 18 19 20 20 20 19 17 16 15 14 12 11 12 15 18 21 22 22 22 22 22 22 23 24 23 22 22 22 21 20 19 19
3 4 9 8 7 10 7 3 3 4 4 4 3 4 4 3 3 1 2 1 0 2 2 4 3 1 0 1 2 2 2 1 4 7 8 8 8 7 7 7 8 9 9 9 11 12 12 13 13 15 16 16 15 16 16 17 19 20 20 19 16 14 13 13 14 12 11 11 16 20 22 25 25 24 24 24 25 25 24 23 23 23 22 23 23 22
2 3 7 4 4 8 5 2 2 2 3 2 2 5 4 3 4 2 2 2 2 2 3 4 2 1 1 1 3 3 2 4 7 9 9 9 8 7 6 5 6 7 7 9 10 12 12 12 12 13 15 15 15 15 15 15 16 17 19 18 16 15 14 13 13 13 13 12 11 12 17 22 25 26 27 27 27 27 25 24 23 24 25 26 26 25
4 1 5 4 3 3 4 2 1 4 3 2 1 4 3 2 4 3 2 3 3 1 3 3 0 1 2 2 3 2 5 6 6 8 8 8 7 6 6 5 6 7 6 8 9 10 11 11 12 12 13 14 14 14 14 14 15 16 16 16 16 16 16 14 14 14 14 14 13 11 11 14 18 21 24 26 27 27 28 30 29 27 28 30 29 27
4 1 5 6 4 3 6 4 3 3 1 0 3 2 2 3 6 5 1 2 3 3 1 2 1 2 2 1 3 5 5 3 2 5 6 6 6 5 5 5 6 6 6 6 7 8 9 11 12 13 13 14 14 14 13 13 14 15 15 16 16 16 16 16 15 15 15 14 13 13 12 12 13 15 17 19 20 22 24 29 32 31 32 34 34 31
4 1 5 4 3 6 10 7 4 6 4 3 2 2 3 2 4 5 3 3 4 2 1 2 1 1 1 1 2 2 2 1 2 1 2 4 5 4 4 5 5 6 5 5 5 6 8 10 12 13 14 14 13 13 13 13 13 14 15 16 16 16 17 17 16 15 14 14 14 12 11 11 12 12 13 15 16 17 17 18 21 25 28 31 34 34
4 2 5 3 1 7 11 7 4 8 9 6 5 3 2 2 1 2 3 2 2 1 2 3 2 2 3 3 2 3 5 5 4 3 3 4 4 2 3 4 4 3 3 3 4 5 8 10 12 15 15 13 13 13 13 14 14 14 14 14 15 15 16 16 16 15 15 14 14 13 12 11 11 11 12 14 15 15 15 14 15 17 21 25 29 34
3 4 3 5 2 3 7 6 2 6 7 5 4 2 2 2 3 2 2 2 3 2 2 1 2 3 4 4 6 7 7 6 5 4 5 6 4 1 0 1 1 1 2 4 5 7 9 11 14 16 15 13 13 13 14 16 16 15 14 13 13 13 14 15 16 16 16 15 15 14 13 13 12 13 13 14 15 16 16 16 15 15 17 19 23 28
2 4 1 5 5 3 2 3 1 2 3 3 4 4 3 2 1 2 2 2 3 4 2 1 1 5 5 3 7 8 7 7 7 6 7 8 5 2 3 2 3 3 3 5 7 8 11 13 16 18 16 13 13 14 15 16 16 15 14 13 13 14 14 15 16 16 17 17 16 16 16 15 15 15 15 16 16 17 17 17 17 16 16 17 17 20
1 3 3 1 4 3 1 2 1 2 1 3 2 1 1 1 1 3 3 2 2 3 3 3 1 5 5 2 5 7 7 9 10 10 9 8 5 3 3 3 5 5 4 5 7 8 11 15 18 20 17 15 15 15 16 17 16 16 16 15 15 15 15 15 16 16 17 17 17 16 16 16 17 17 17 17 16 17 17 18 18 18 18 17 16 16
2 4 4 2 1 1 4 4 1 1 3 4 2 2 2 1 3 5 2 1 2 2 1 3 1 5 5 3 6 8 10 11 12 11 10 8 6 3 3 5 6 6 5 5 7 7 10 14 18 19 18 17 17 17 17 18 18 17 17 17 17 17 17 16 16 17 18 18 18 18 17 18 18 19 19 19 18 17 17 19 19 19 19 18 17 16
2 3 4 2 3 3 6 6 3 2 4 4 3 2 3 2 2 4 4 3 3 1 0 2 1 5 5 3 6 8 9 10 11 11 10 9 7 4 5 7 7 6 5 5 6 7 10 14 17 18 18 18 18 18 17 18 19 19 18 18 18 18 19 18 17 17 19 19 19 19 20 20 21 21 22 22 20 18 17 18 19 20 19 19 17 16
1 1 4 3 3 5 6 6 6 5 3 2 1 3 3 3 4 3 2 3 3 1 2 3 2 6 4 4 2 4 6 9 12 12 11 9 8 7 7 7 7 6 5 5 5 7 10 13 16 17 17 18 18 18 17 18 19 19 18 19 19 20 20 20 18 18 18 19 20 21 22 22 23 23 23 23 22 21 19 19 20 20 20 19 18 17
2 2 3 5 3 1 1 2 2 2 3 1 1 3 4 4 3 2 2 4 2 1 3 4 3 5 5 3 2 3 5 7 11 13 12 11 10 9 9 8 7 7 5 4 4 7 9 12 14 15 16 17 17 17 17 17 18 18 18 19 19 20 21 20 20 19 19 19 20 21 22 22 23 24 23 22 22 21 20 20 20 20 20 19 18 17
4 3 2 5 6 5 5 4 3 1 1 1 2 3 2 2 3 4 4 2 2 3 1 3 5 2 4 4 4 5 5 6 10 13 14 14 12 11 10 9 9 8 6 5 4 6 8 10 11 13 15 16 15 15 15 16 18 19 19 20 21 21 21 21 21 21 21 21 22 22 22 22 22 22 21 20 20 21 21 21 20 20 20 20 19 17
4 3 2 4 3 4 6 5 3 1 2 1 1 1 2 1 4 5 3 1 3 3 3 6 5 3 6 7 7 7 6 6 11 16 17 16 14 12 11 11 11 10 8 5 5 5 7 8 9 11 13 14 14 13 13 15 17 19 20 21 21 22 21 22 22 22 22 22 23 23 22 22 21 20 18 18 19 20 20 21 21 21 20 19 19 17
5 2 0 2 1 3 2 3 2 2 2 2 3 1 1 0 2 1 2 4 6 4 4 6 5 5 7 7 7 10 11 12 16 19 18 16 15 13 12 12 12 11 8 5 5 5 6 7 8 10 12 13 12 12 12 14 17 19 20 21 22 23 23 24 24 22 21 22 22 23 23 21 21 19 17 18 19 20 20 21 22 23 22 20 18 17
4 1 1 1 3 5 5 2 2 4 3 1 1 2 3 3 4 3 2 4 4 4 5 4 6 7 7 7 9 11 15 19 17 16 16 16 15 14 13 14 13 11 8 5 5 6 6 7 7 9 12 11 10 12 13 15 18 20 21 23 25 26 27 26 24 22 21 22 22 22 22 21 20 19 17 17 19 21 21 21 21 22 23 21 18 16
3 1 1 3 4 5 5 5 5 4 3 1 4 4 2 1 2 1 2 3 2 3 2 4 3 6 7 7 7 7 10 14 12 12 16 17 16 15 14 14 13 11 7 5 6 6 7 7 7 8 10 10 10 12 15 17 19 21 23 25 27 29 29 27 24 23 23 23 21 20 20 20 20 19 19 18 18 20 22 23 21 21 22 22 19 16
3 2 2 4 5 4 4 6 6 5 5 3 6 6 2 2 2 2 2 3 4 3 2 1 1 5 5 4 3 3 6 10 11 13 16 17 16 14 13 13 13 10 7 6 7 7 7 7 6 8 9 10 11 13 16 18 20 23 25 27 29 30 30 27 24 23 23 22 21 20 19 19 19 20 20 19 18 19 22 24 24 22 21 20 20 17
3 3 1 3 3 4 5 5 4 5 7 4 6 4 5 3 2 2 2 3 4 5 4 3 5 6 4 3 2 3 5 7 11 14 16 17 16 13 12 11 11 10 8 8 8 7 7 7 6 7 9 10 13 15 17 19 21 23 26 28 30 30 28 25 22 22 23 22 22 21 19 19 19 19 20 20 20 21 23 25 25 24 21 19 19 18
3 4 2 3 3 3 6 5 5 5 2 4 6 5 6 4 4 5 4 6 6 4 3 4 5 5 5 5 6 7 7 9 12 14 16 16 14 13 12 11 11 11 9 8 7 6 6 6 6 7 9 11 13 15 16 18 21 24 27 29 29 27 24 22 21 21 22 22 21 21 20 19 19 19 20 21 22 23 24 25 25 25 22 18 17 18
3 4 2 2 2 1 3 5 6 1 4 7 5 2 4 4 6 6 4 6 7 5 5 6 6 7 7 9 10 10 10 10 10 11 13 14 13 13 12 11 11 11 9 8 7 7 6 6 7 8 9 11 13 14 16 20 23 27 28 27 25 22 21 21 21 22 22 22 22 21 19 19 19 19 20 21 22 24 25 25 26 26 23 18 15 16
5 4 2 2 2 1 2 4 2 4 6 5 5 3 1 2 3 2 4 6 6 7 6 6 6 5 4 6 9 8 9 9 8 10 12 13 13 13 12 12 11 9 9 8 8 7 6 7 8 9 10 11 13 15 18 23 26 27 26 23 21 21 21 22 22 22 22 21 21 20 19 19 20 21 22 23 24 25 26 26 26 25 22 18 15 15
6 4 1 1 1 1 2 1 3 5 4 3 3 3 4 3 4 4 2 6 7 8 8 5 4 4 3 5 6 6 7 5 3 8 13 14 13 13 12 12 9 8 9 8 8 8 8 9 9 9 10 12 14 17 21 24 26 26 24 21 21 22 22 21 21 21 20 20 19 19 19 20 22 23 24 24 25 26 26 26 25 23 21 18 16 14
5 2 3 1 1 2 3 1 3 4 3 5 6 5 3 3 4 7 3 5 7 9 10 7 6 7 7 7 8 9 7 3 2 8 12 14 15 13 12 11 9 9 10 9 9 9 10 10 10 10 11 13 16 19 22 24 24 24 23 21 21 22 21 19 19 20 19 19 18 19 20 22 24 25 25 25 24 25 25 25 24 23 21 19 17 13
7 3 4 4 1 2 4 1 1 2 4 6 7 5 2 5 6 7 5 5 6 8 11 11 11 12 11 11 12 11 7 2 4 9 10 11 15 14 12 11 10 10 11 11 11 11 11 10 10 11 12 14 17 20 22 22 23 23 21 20 21 22 20 19 19 19 18 18 19 21 23 24 25 25 25 24 23 23 23 23 24 24 21 19 17 13
5 4 3 2 1 2 3 2 3 4 4 4 6 4 6 9 6 7 4 6 7 10 13 15 16 15 14 13 13 11 6 5 6 8 9 9 13 14 12 12 12 12 13 12 12 12 11 11 11 12 13 16 19 20 21 21 22 21 20 20 21 20 19 19 19 18 18 19 21 23 24 24 25 24 23 22 22 21 21 21 23 24 21 19 16 13
2 3 2 2 2 3 3 2 3 4 4 4 4 7 10 7 4 4 2 7 7 11 16 17 17 16 15 16 15 12 10 10 9 9 8 7 11 13 13 13 13 13 13 12 11 12 11 11 12 13 15 17 18 19 19 20 21 20 20 20 20 19 19 19 19 19 20 21 22 23 23 23 22 21 20 20 20 20 21 21 22 22 20 18 15 13
1 1 1 2 2 3 3 2 2 4 5 4 7 10 9 5 1 3 6 5 5 11 16 17 18 17 16 18 18 15 13 12 11 12 9 7 9 12 12 13 14 14 13 12 11 12 12 12 12 14 16 16 17 18 18 19 20 20 20 20 19 19 19 19 19 20 21 22 22 22 22 20 19 18 18 19 20 21 21 22 20 19 18 16 14 13
3 2 1 2 3 2 2 2 1 4 4 11 14 7 4 5 4 4 5 5 6 10 14 16 17 16 16 18 18 16 14 12 11 12 10 9 10 11 12 13 14 14 12 11 11 11 11 12 13 15 16 15 16 17 17 18 19 20 20 20 19 19 19 19 20 20 20 20 20 20 19 18 18 18 19 20 21 21 21 20 19 18 17 16 14 14
3 4 2 2 3 4 2 2 3 4 9 21 17 6 8 12 9 4 3 5 8 10 13 15 16 15 16 17 16 15 14 13 11 11 12 12 13 13 14 14 13 12 10 10 10 11 12 13 14 14 14 14 15 16 16 17 19 19 19 18 18 18 18 18 18 18 18 19 19 19 19 19 20 20 20 20 19 19 19 19 19 19 18 17 16 15
5 6 3 1 3 4 4 7 5 2 11 26 23 14 11 13 13 10 7 6 7 9 12 13 13 14 15 15 14 13 13 13 13 13 14 15 15 14 15 14 12 11 10 10 11 13 13 14 14 13 13 13 14 15 16 17 18 18 17 17 16 16 17 17 17 18 19 19 20 20 20 21 21 21 20 18 18 18 19 19 20 19 19 19 18 18
4 4 4 1 3 4 5 8 8 6 9 21 24 21 15 11 12 13 13 11 9 8 10 10 11 12 13 13 13 13 13 14 14 15 16 16 16 15 15 13 12 11 11 12 13 14 14 13 13 12 12 13 13 14 15 16 17 17 15 14 15 15 16 17 17 18 19 20 20 20 21 21 21 21 19 18 18 18 18 19 19 19 19 19 19 19
2 4 3 1 1 1 3 6 6 7 10 13 18 22 22 18 14 12 12 12 10 9 10 10 10 11 12 13 14 14 14 15 15 16 17 17 16 16 16 14 13 13 13 14 15 15 14 13 12 12 12 12 13 14 15 15 16 15 13 12 14 15 16 17 18 19 19 20 20 20 20 20 20 20 20 19 19 19 18 18 18 19 19 19 19 19
1 4 3 2 3 3 5 8 8 8 10 11 13 18 22 21 20 17 14 11 10 10 10 10 11 13 14 15 16 16 16 16 16 16 16 16 17 17 16 16 15 15 15 16 16 15 13 12 12 12 12 12 13 14 15 15 15 14 12 12 13 15 16 18 19 19 19 20 20 20 19 19 19 20 20 20 19 19 19 18 19 20 19 18 18 19
5 4 3 2 2 3 6 9 8 8 10 12 14 16 18 18 19 19 17 14 12 12 12 12 13 15 16 16 17 17 17 16 16 16 16 16 16 17 17 17 17 16 17 17 16 14 12 11 12 12 12 12 13 14 14 14 15 13 11 11 13 14 16 18 19 19 19 20 21 20 20 19 19 19 19 19 19 19 18 17 18 20 20 18 16 16
5 3 3 3 1 4 5 7 5 3 6 12 14 13 13 13 13 15 16 17 16 14 14 14 15 16 16 17 17 18 18 17 16 15 16 16 16 17 17 17 18 18 19 18 15 12 12 13 13 12 12 13 13 14 14 15 15 14 12 12 13 14 16 18 19 19 19 20 21 21 20 20 19 19 19 19 19 20 19 18 16 17 19 18 16 13
9 8 6 5 4 6 7 9 8 6 10 14 13 10 10 10 12 13 15 16 16 15 14 14 15 15 16 17 18 19 19 17 16 15 16 16 16 17 17 18 19 20 19 17 14 13 13 13 13 12 13 13 13 13 14 14 15 15 14 15 15 15 16 17 18 18 19 20 22 21 21 21 20 20 19 19 18 19 20 20 19 17 16 17 16 14
Wind_Direction
61 63 38 35 325 324 334 3 110 109 101 112 107 91 111 106 85 90 59 315 99 77 44 50 64 50 45 46 38 42 51 48 38 43 54 63 68 73 74 67 61 56 48 43 27 15 13 357 354 354 344 341 336 329 312 297 293 288 282 282 285 287 286 282 284 289 289 283 271 265 260 249 240 235 237 246 249 252 254 262 276 288 297 291 268 255
70 74 356 320 301 335 359 41 85 84 80 85 104 95 67 81 96 68 29 14 98 96 52 58 67 52 44 48 43 46 51 48 42 39 38 54 60 56 61 64 55 60 59 47 27 19 17 358 352 340 325 334 339 337 328 314 306 296 289 287 285 287 287 285 284 284 287 288 284 281 280 273 266 263 266 267 258 251 249 257 276 286 306 307 271 248
53 49 301 300 333 43 23 32 78 85 88 80 91 105 87 81 96 25 2 10 85 92 72 69 70 53 40 52 50 51 58 61 62 60 37 41 53 55 66 64 14 46 49 26 22 18 5 347 342 326 319 337 338 334 329 318 307 296 292 293 290 289 287 285 284 281 281 284 282 277 276 276 276 277 277 269 259 252 248 254 268 280 309 313 267 238
61 335 302 343 52 84 29 29 79 82 71 87 103 111 128 192 122 32 20 72 87 105 123 85 74 55 31 45 51 50 59 65 63 67 62 60 68 69 78 57 20 52 34 2 9 4 353 343 342 336 330 338 331 319 315 310 302 292 289 291 293 293 290 288 285 281 279 277 275 271 269 270 271 274 274 270 270 271 273 277 286 300 309 303 257 223
109 284 329 47 59 100 81 35 62 86 56 27 120 131 157 201 129 135 132 94 80 99 114 84 68 46 21 33 41 38 51 61 60 64 69 74 80 79 79 66 55 69 46 8 9 358 355 344 341 340 329 326 317 305 303 305 305 299 293 289 291 293 291 289 285 280 275 268 266 264 265 269 273 275 275 278 290 302 311 318 324 322 309 297 277 248
90 323 350 68 45 55 74 38 31 104 94 13 300 168 164 144 122 130 129 75 47 49 34 58 75 38 5 27 34 26 42 51 53 56 61 68 74 75 74 71 69 68 57 45 33 18 8 352 349 350 343 335 319 305 297 298 302 299 293 287 285 286 283 280 277 273 267 260 257 258 262 271 278 283 285 293 308 317 322 324 323 320 311 300 284 274
54 2 39 79 53 43 50 31 8 112 108 46 351 163 143 128 127 135 84 53 68 63 3 29 96 103 16 25 17 24 50 46 42 45 52 64 72 75 75 74 73 70 64 57 44 31 20 6 2 2 3 360 346 339 324 309 299 287 281 278 275 274 275 275 272 269 262 255 253 256 261 267 275 283 288 295 304 309 313 314 314 315 312 304 287 277
330 15 30 52 53 49 42 4 314 116 111 11 320 138 141 137 140 142 84 78 121 147 31 21 59 109 69 24 344 20 56 48 35 34 43 62 73 76 76 76 76 73 67 59 47 32 23 14 9 9 10 8 4 0 346 317 297 285 277 274 271 268 268 271 271 270 264 257 256 258 259 261 266 274 280 285 291 296 301 303 306 309 308 303 290 276
334 37 44 66 58 48 31 297 270 123 98 304 169 130 139 127 117 110 95 95 92 90 40 358 20 87 75 9 344 26 50 38 26 19 30 61 77 80 78 76 73 70 66 59 51 41 29 17 9 9 9 10 11 5 354 338 320 310 299 287 282 277 273 273 272 269 263 259 261 263 263 263 264 270 274 277 280 282 285 288 295 302 304 301 289 275
0 72 114 102 75 28 273 310 315 103 108 162 117 94 75 56 60 68 80 91 47 54 32 329 353 84 94 348 353 33 50 26 357 348 12 60 77 80 78 75 70 63 58 51 47 42 31 20 12 8 7 11 14 5 357 358 353 343 333 331 329 313 299 292 286 279 274 270 267 268 270 270 268 270 272 272 275 276 276 279 284 292 297 295 285 275
350 48 91 69 28 259 193 22 17 60 117 135 100 77 70 39 28 44 43 68 63 38 347 327 350 76 109 340 354 63 141 227 253 311 33 65 77 82 79 74 67 58 52 47 44 39 32 29 22 16 13 12 15 9 358 358 1 358 354 5 11 351 325 310 294 283 279 276 274 272 271 272 272 272 273 273 273 273 273 276 280 284 287 285 281 277
14 36 359 339 353 7 106 123 26 43 75 93 79 83 91 24 8 31 359 31 71 12 299 331 356 48 90 113 265 237 209 202 207 190 98 80 81 87 81 70 60 52 51 51 48 42 35 33 31 28 23 18 17 13 5 2 2 1 2 11 15 4 353 340 314 288 277 274 276 276 270 269 272 275 280 281 280 278 277 277 279 280 281 279 279 281
20 18 324 329 3 22 40 54 358 19 44 61 63 76 85 27 21 42 347 11 70 263 293 346 0 51 77 96 236 240 234 201 197 173 144 124 105 95 80 65 51 43 45 51 52 44 35 34 35 33 30 26 23 18 14 12 10 9 11 16 14 5 2 359 346 321 292 274 273 278 277 275 278 283 289 291 290 287 285 283 279 277 275 273 274 277
354 321 346 359 355 5 38 87 9 353 18 44 85 97 100 91 70 57 300 357 310 252 307 342 7 82 56 277 234 270 325 47 136 146 145 133 116 104 87 67 50 41 44 50 50 45 38 34 35 35 34 32 28 23 18 15 15 16 17 22 21 11 6 3 358 349 330 297 276 275 276 278 282 288 291 294 293 289 288 286 280 274 272 270 269 270
76 337 347 4 325 344 18 98 123 121 58 32 153 122 115 142 130 158 206 171 189 240 318 339 21 118 225 253 271 290 10 92 125 139 142 133 125 121 111 85 60 52 52 53 49 44 40 34 33 35 34 31 29 26 23 18 16 17 19 23 22 18 15 8 3 0 357 347 320 293 277 274 278 283 285 289 290 287 286 286 281 277 276 274 272 269
83 299 290 298 289 342 13 340 82 101 67 349 118 81 65 163 137 130 166 162 153 122 351 345 0 239 250 279 325 25 84 96 120 136 137 137 141 140 127 97 71 68 65 59 53 44 40 36 32 30 26 25 24 23 24 21 16 16 18 20 18 17 20 18 12 7 5 2 354 341 315 291 284 282 282 286 288 286 283 281 279 276 276 277 276 273
77 299 288 327 337 28 36 357 7 72 115 37 54 51 238 160 117 114 112 35 65 84 354 311 249 300 315 325 2 42 76 65 95 134 142 146 147 142 124 96 77 82 84 75 63 45 37 34 29 25 19 15 16 19 23 22 18 17 16 16 14 11 14 18 18 14 12 10 6 0 350 334 316 302 294 293 295 293 286 280 277 272 269 271 273 273
119 166 301 345 354 343 3 5 13 42 73 107 96 207 206 110 98 105 93 22 32 69 290 298 246 261 278 210 6 44 116 228 272 190 177 171 158 143 115 95 79 75 75 73 66 44 29 26 22 18 14 13 17 22 25 25 20 17 13 12 12 7 6 8 10 11 9 7 7 4 357 350 339 327 315 307 302 297 293 286 278 271 265 263 266 267
103 100 302 310 230 312 348 18 22 17 40 96 142 161 119 109 114 53 77 111 78 84 272 304 311 259 217 201 196 193 194 215 245 265 249 214 185 142 97 86 78 61 36 28 37 27 17 17 14 11 11 18 25 27 27 25 19 16 13 11 11 6 2 360 0 4 2 359 360 357 351 344 337 329 320 313 307 301 298 293 285 278 270 264 261 260
86 109 281 295 293 314 356 33 31 344 6 55 78 37 42 118 138 92 94 141 123 132 203 299 339 279 234 202 183 196 212 211 220 252 245 227 209 163 104 30 15 346 354 356 358 -0 3 7 8 8 12 19 24 24 22 21 20 20 20 19 18 13 7 2 360 1 2 359 354 351 348 342 334 328 322 318 315 310 306 299 293 289 283 277 269 262
42 92 153 297 336 20 12 18 35 309 334 17 30 15 5 10 61 101 72 69 113 133 161 137 297 269 253 197 176 195 215 210 204 217 225 224 219 230 267 302 304 303 329 340 340 347 353 357 2 6 9 13 16 18 18 20 25 27 26 27 25 20 16 11 5 3 3 2 358 353 350 347 342 336 330 326 322 318 313 306 300 296 291 288 285 277
34 88 114 326 5 44 308 284 242 257 222 135 105 61 120 225 115 92 53 0 88 122 153 150 202 267 264 203 179 194 206 209 210 210 211 216 219 235 274 301 303 302 307 325 336 344 347 352 357 0 4 9 13 16 19 22 26 27 25 25 23 20 17 13 8 5 3 2 2 -0 356 354 352 348 343 338 333 328 322 314 308 303 297 294 293 291
113 101 88 50 11 207 273 281 215 147 120 119 99 92 126 114 95 110 144 229 57 65 139 120 114 272 269 224 198 200 202 206 210 207 201 201 207 227 277 293 302 301 294 314 331 339 346 351 354 357 1 5 10 13 16 18 20 20 19 17 16 16 13 8 4 2 0 360 360 359 357 354 352 352 352 349 344 339 333 325 318 311 305 301 298 297
85 86 74 19 311 309 306 314 351 52 73 67 17 35 82 47 77 129 165 164 97 45 161 76 357 272 279 267 219 205 201 203 207 206 199 198 205 226 264 281 293 294 288 301 320 334 347 350 352 358 2 3 4 5 7 11 12 13 12 11 10 11 10 6 -0 357 357 358 357 356 353 352 350 350 351 353 353 349 342 336 329 322 314 305 299 299
71 90 90 73 1 347 343 345 351 356 27 68 317 336 46 72 84 94 88 80 86 176 148 117 235 258 281 320 279 200 193 210 214 208 203 207 213 222 244 264 273 273 273 283 307 332 346 350 354 1 3 2 359 358 360 5 6 6 7 7 6 5 7 8 4 359 357 355 354 354 352 351 351 349 348 350 354 353 349 344 339 334 327 314 303 298
117 125 111 113 121 153 289 315 314 331 349 6 302 3 46 78 89 112 85 60 73 170 132 143 212 264 288 309 295 202 194 218 223 214 211 216 217 222 236 250 253 250 250 265 300 329 343 350 357 2 2 359 354 353 356 358 358 359 -0 1 1 359 360 2 360 358 356 354 352 351 351 351 350 350 349 349 352 354 354 350 346 342 338 329 316 303
106 87 103 134 149 176 188 217 235 156 67 0 358 12 28 64 73 89 85 64 151 152 139 218 200 237 279 249 224 225 214 218 224 216 214 219 218 222 232 237 237 236 237 253 288 322 340 350 356 -0 -0 355 348 348 351 350 350 352 352 352 353 352 351 351 350 349 348 348 347 348 349 349 349 348 347 348 349 351 353 354 350 345 341 337 330 319
96 41 36 119 147 211 201 219 267 75 119 199 204 3 349 71 81 74 78 166 149 117 300 259 189 171 251 238 221 227 220 218 225 218 216 219 218 221 228 229 229 229 230 246 281 311 333 343 349 356 357 350 343 340 341 342 344 346 347 347 348 347 346 345 343 342 340 338 339 342 344 346 347 345 343 343 344 344 346 350 352 348 342 336 333 330
109 70 334 114 20 301 265 243 234 94 97 176 170 195 313 161 145 131 196 186 155 154 240 242 183 191 240 237 221 218 208 208 218 220 220 219 216 219 225 226 228 229 229 248 284 307 322 328 339 352 351 343 339 335 332 337 341 343 345 345 344 343 341 340 339 336 334 334 333 335 338 341 344 343 338 336 338 339 340 342 346 348 345 338 331 329
110 86 304 96 35 7 9 8 100 83 57 352 233 240 258 233 213 213 209 192 184 203 215 192 194 229 246 231 227 226 214 212 219 224 221 216 215 220 225 229 232 231 234 261 289 298 308 317 332 347 345 338 335 334 333 336 339 341 341 340 340 339 338 336 333 330 330 332 332 331 332 335 339 340 334 332 334 336 337 337 338 343 344 342 335 329
82 40 330 85 48 354 358 19 30 50 71 295 307 315 318 192 202 202 178 176 205 245 198 142 188 263 263 232 230 238 218 212 220 226 219 214 215 222 227 232 236 235 243 274 285 285 294 309 327 338 337 334 333 334 335 335 336 336 336 335 335 336 335 331 327 326 329 332 330 326 327 332 337 337 333 331 331 333 336 337 336 337 340 342 340 335
72 72 5 68 57 315 328 13 3 16 53 18 312 302 254 167 186 214 202 185 190 189 152 110 255 263 267 257 239 222 201 202 214 221 216 212 216 225 233 239 241 240 247 263 268 277 288 297 316 327 328 330 331 333 334 334 334 333 332 332 333 333 332 328 324 326 331 334 330 322 323 331 336 336 334 332 332 332 335 338 337 335 335 338 340 338
97 98 45 72 76 277 305 7 13 34 41 351 284 241 194 188 202 222 270 243 204 154 139 199 231 234 269 309 261 212 201 204 219 221 213 211 217 227 237 243 242 241 250 260 262 271 283 288 302 314 317 322 326 329 332 331 331 330 329 330 331 332 331 327 324 327 332 336 332 324 324 330 333 334 332 330 331 332 332 335 338 336 332 331 335 336
91 92 120 131 103 278 297 350 31 50 41 263 243 188 179 199 186 186 224 231 211 179 179 230 243 248 273 269 228 218 214 213 224 224 215 215 222 226 234 238 237 243 255 264 268 278 286 285 289 296 303 312 319 324 327 328 328 328 327 328 330 332 331 327 326 329 332 335 333 327 326 329 331 331 330 328 328 329 330 331 335 338 333 326 326 330
93 84 123 134 91 283 310 26 41 18 232 246 270 243 216 212 179 184 240 241 218 225 246 261 265 261 260 247 230 232 233 228 232 228 218 220 225 227 235 240 239 248 257 265 283 299 293 276 274 284 296 306 314 320 325 327 328 328 328 329 330 331 331 329 330 331 330 330 330 327 326 328 329 329 328 327 326 326 328 328 331 336 333 325 320 322
131 126 121 103 92 350 17 52 36 272 257 271 303 295 209 149 147 162 303 284 237 212 212 233 251 253 245 229 224 234 239 233 234 229 219 221 226 226 233 240 242 250 259 270 289 291 269 258 268 283 296 306 315 322 327 330 331 331 329 329 329 330 331 331 330 329 328 328 329 328 327 327 327 328 328 329 328 327 327 326 327 331 331 325 318 316
124 138 112 77 139 109 90 238 279 317 332 320 289 234 177 162 165 158 243 279 245 203 187 199 230 221 180 183 191 194 197 197 231 234 222 220 225 227 233 240 243 250 261 274 278 265 253 257 271 285 298 308 317 324 329 334 336 333 329 328 330 334 336 335 331 329 328 329 329 328 327 327 328 329 330 330 328 326 325 324 324 327 328 325 318 312
78 125 152 143 300 101 100 320 327 2 328 268 252 246 213 176 155 134 120 297 263 214 199 191 189 186 171 156 153 154 150 121 298 255 237 228 228 232 238 243 248 258 268 274 269 258 256 262 273 287 299 308 318 326 333 339 339 334 330 329 332 337 339 337 333 329 327 328 328 327 328 329 329 328 327 327 325 324 323 324 324 325 325 324 319 310
47 50 102 97 48 114 117 142 242 227 252 246 246 260 178 154 144 104 61 314 266 210 200 194 188 187 179 170 163 153 134 128 256 269 271 248 235 236 243 249 255 262 267 269 266 260 259 266 277 290 300 311 323 330 335 339 338 334 330 329 330 333 335 334 331 328 327 327 327 327 327 326 326 326 325 324 323 323 325 325 324 324 322 321 318 309
44 30 47 85 183 168 135 164 231 238 246 245 246 231 152 151 129 73 27 285 242 197 193 193 194 195 192 185 173 160 161 202 244 287 300 263 237 238 248 254 254 257 261 264 262 259 261 270 281 292 304 316 324 330 335 338 334 328 324 323 326 327 328 328 327 325 325 326 326 326 325 324 325 326 326 325 323 324 325 325 325 324 322 319 317 308
41 29 48 133 169 157 157 208 269 260 247 248 222 166 144 131 79 67 230 246 218 192 193 198 204 207 203 194 186 191 219 238 256 286 296 267 239 239 249 252 250 252 258 261 260 260 265 273 283 296 308 317 324 330 335 335 329 321 317 319 322 323 325 325 324 322 324 326 327 327 326 326 327 327 327 326 324 324 324 325 327 327 324 319 315 306
132 75 93 130 136 143 165 203 293 285 255 186 145 143 141 127 112 215 218 223 206 201 203 206 213 216 213 209 210 223 246 256 259 266 272 261 240 238 245 247 247 253 259 259 259 263 268 275 287 300 310 317 325 332 335 331 321 315 314 317 320 323 324 323 323 323 325 326 328 330 331 331 330 328 327 325 324 324 325 326 328 330 328 321 313 303
178 171 207 210 175 136 60 65 36 294 230 150 130 121 157 185 209 222 213 212 215 215 214 216 221 222 221 224 228 238 252 258 256 255 255 251 245 244 246 248 251 257 260 260 261 263 269 279 290 301 310 318 328 334 333 325 315 312 314 317 321 324 324 324 326 327 328 331 334 336 337 336 333 330 329 327 326 326 326 326 328 331 331 325 315 304
194 177 201 247 184 130 102 189 211 254 187 165 158 177 213 211 226 240 217 226 230 223 220 225 231 230 228 234 240 244 248 250 253 255 255 257 256 253 253 254 256 258 259 258 261 265 272 281 290 301 311 321 331 334 330 321 314 312 315 320 324 327 327 329 332 336 340 343 342 340 338 336 334 333 332 331 330 329 329 330 331 332 332 330 323 314
223 192 169 220 203 171 188 218 240 281 180 181 194 219 224 223 235 237 237 251 247 234 231 234 242 242 239 242 245 243 244 250 256 260 261 259 258 257 259 261 260 259 257 256 260 267 273 280 290 302 313 324 331 331 326 321 315 313 316 324 329 330 330 331 335 342 347 346 343 340 338 336 336 336 337 336 335 336 336 335 333 332 330 330 327 323
227 185 142 140 247 256 262 248 251 265 216 202 212 227 234 238 239 235 243 253 250 246 246 246 255 257 249 244 240 239 247 256 260 261 259 256 256 256 258 260 259 257 255 256 261 268 272 280 292 305 316 325 328 327 324 322 315 311 318 331 337 336 333 332 335 340 344 343 341 339 337 336 336 338 340 340 339 340 342 340 337 334 331 327 324 323
243 177 172 225 253 261 276 256 239 243 240 227 227 234 238 242 240 236 242 249 249 253 253 252 260 261 253 247 243 245 254 260 259 258 256 253 255 257 258 260 261 259 258 259 262 266 271 281 296 309 316 321 324 324 323 320 312 308 318 337 344 342 339 337 338 341 342 341 340 337 335 335 335 336 339 341 341 341 344 344 344 342 338 332 326 323
171 170 196 217 179 183 251 269 269 268 263 253 244 243 244 246 246 242 241 246 251 253 250 249 252 249 247 246 244 247 255 257 255 255 254 253 256 259 260 262 262 259 258 257 258 263 272 287 300 308 312 316 321 324 323 317 309 304 314 333 339 340 342 341 340 341 343 343 341 338 335 334 333 334 336 339 340 340 340 343 347 349 349 342 331 327
141 171 199 182 208 273 286 280 279 287 281 264 254 254 257 256 253 248 245 246 248 249 246 245 246 247 248 249 247 248 254 256 254 254 255 255 256 258 260 261 260 258 256 256 257 265 278 290 298 303 307 313 321 324 322 316 305 299 306 322 328 332 338 339 338 337 339 342 343 339 336 334 332 331 332 333 335 336 337 340 344 347 351 351 341 331
145 193 184 133 254 275 264 254 243 247 273 270 268 270 268 260 252 245 240 240 245 247 246 245 246 247 248 250 250 249 253 258 258 255 254 255 256 259 262 262 259 256 254 252 255 266 280 288 294 299 303 310 318 322 321 315 305 297 298 306 313 322 330 333 334 334 335 337 339 338 336 333 331 330 329 328 329 331 332 335 339 343 348 353 351 341
207 223 200 176 215 244 262 278 274 248 257 274 282 280 265 249 241 237 237 241 247 249 248 249 250 249 250 253 252 250 255 261 260 255 255 257 258 262 265 264 261 258 254 251 255 269 282 288 291 293 298 306 315 320 321 317 307 297 293 294 300 310 321 328 331 332 332 333 335 336 335 332 329 327 327 324 322 323 326 328 331 336 344 350 354 351